DW6101 Cognac FR current weather conditions

sailwx.info

Wind from 013 at 3 knots gusting 7

Air temperature 19.4° C
Dewpoint 3.6° C

Last reported at 2019-Sep-19 19:45 UTC.
Time now 2019-Sep-19 20:53 UTC

Location: N 45°42' W 000°20'.
View on Google Maps.

See reports from other nearby stations

  
Tides and Currents Weather Stations Pressure Air Temp Water Temp Dewpoint Dewpoint Depression Visibility Wind Speed Wind Dir Waves Ship Positions
date/time (UTC)wind fromknots sea level pressurealtimeterstation pressurevisibilityair tempwater tempwave heightnotes
2019-Sep-19 19:45 013 3 gusting 7 19.4
2019-Sep-19 19:16 065 3 gusting 8 20.0
2019-Sep-19 19:02 061 2 gusting 10 20.0
2019-Sep-19 18:46 038 3 gusting 9 20.6
2019-Sep-19 18:16 066 5 gusting 11 21.1
2019-Sep-19 18:02 044 6 gusting 12 21.7
2019-Sep-19 17:45 042 5 gusting 13 22.2
2019-Sep-19 17:15 040 5 gusting 11 23.3
2019-Sep-19 17:02 052 9 gusting 15 23.3
2019-Sep-19 16:45 036 6 gusting 16 23.9
2019-Sep-19 16:16 036 8 gusting 19 24.4
2019-Sep-19 15:46 046 8 gusting 16 25.0
2019-Sep-19 15:15 044 11 gusting 21 25.6
2019-Sep-19 15:01 028 10 gusting 16 25.6
2019-Sep-19 14:46 011 8 gusting 15 26.1
2019-Sep-19 14:15 038 10 gusting 18 26.1
2019-Sep-19 14:01 040 6 gusting 14 25.6
2019-Sep-19 13:45 057 10 gusting 16 25.6
2019-Sep-19 13:17 049 8 gusting 17 25.0
2019-Sep-19 13:02 017 9 gusting 17 25.0
2019-Sep-19 12:45 044 5 gusting 19 24.4
2019-Sep-19 12:16 061 8 gusting 18 24.4
2019-Sep-19 12:01 076 6 gusting 19 23.9
2019-Sep-19 11:45 081 8 gusting 17 23.9
2019-Sep-19 11:16 057 7 gusting 18 22.8
2019-Sep-19 11:01 079 7 gusting 16 22.8
2019-Sep-19 10:16 021 5 gusting 16 21.1
2019-Sep-19 09:47 041 5 gusting 15 20.0
2019-Sep-19 09:31 047 5 gusting 16 19.4
2019-Sep-19 09:15 033 4 gusting 17 18.9
2019-Sep-19 08:47 049 6 gusting 13 17.2
2019-Sep-19 08:15 114 5 gusting 13 16.1
2019-Sep-19 07:47 054 10 gusting 16 15.0
2019-Sep-19 07:32 057 6 gusting 14 14.4
2019-Sep-19 07:16 078 6 gusting 14 13.9
2019-Sep-19 06:15 061 5 gusting 14 12.8
2019-Sep-19 05:47 012 6 gusting 11 12.8
2019-Sep-19 05:15 034 3 gusting 13 12.8
2019-Sep-19 04:47 034 5 gusting 13 13.3
2019-Sep-19 04:15 011 3 gusting 13 13.3
2019-Sep-19 03:16 032 5 gusting 15 13.9
2019-Sep-19 02:45 037 6 gusting 13 14.4
2019-Sep-19 01:45 069 7 gusting 17 15.0
2019-Sep-19 01:15 078 6 gusting 16 15.6
2019-Sep-19 00:16 051 4 gusting 13 16.1
2019-Sep-18 23:46 042 6 gusting 13 16.1
2019-Sep-18 22:46 041 7 gusting 15 17.2
2019-Sep-18 21:46 046 8 gusting 17 17.8
2019-Sep-18 21:18 061 7 gusting 18 18.3
2019-Sep-18 20:45 019 10 gusting 17 18.9
2019-Sep-18 20:16 049 8 gusting 18 19.4
2019-Sep-18 20:02 055 9 gusting 17 20.0
2019-Sep-18 19:46 030 7 gusting 14 20.0
2019-Sep-18 19:16 040 6 gusting 16 20.6
2019-Sep-18 19:02 031 7 gusting 13 21.1
2019-Sep-18 18:46 063 6 gusting 15 21.7
2019-Sep-18 18:16 036 5 gusting 13 22.2
2019-Sep-18 18:01 039 6 gusting 16 22.2
2019-Sep-18 17:46 347 6 gusting 16 22.8
2019-Sep-18 17:16 069 7 gusting 17 23.3
2019-Sep-18 16:46 066 8 gusting 17 24.4
2019-Sep-18 16:18 044 9 gusting 22 25.6
2019-Sep-18 16:01 038 10 gusting 19 26.1
2019-Sep-18 15:45 044 8 gusting 17 26.1
2019-Sep-18 15:16 040 9 gusting 16 26.7
2019-Sep-18 14:46 057 8 gusting 15 26.7
2019-Sep-18 13:17 031 8 gusting 19 25.6
2019-Sep-18 13:01 057 8 gusting 16 25.6
2019-Sep-18 12:46 033 7 gusting 19 25.0
2019-Sep-18 12:16 036 11 gusting 18 25.0
2019-Sep-18 12:03 093 8 gusting 21 25.0
2019-Sep-18 11:46 027 12 gusting 19 24.4
2019-Sep-18 11:15 026 8 gusting 19 23.9
2019-Sep-18 10:45 028 7 gusting 17 22.8
2019-Sep-18 10:15 034 10 gusting 16 22.8
2019-Sep-18 09:47 024 9 gusting 15 21.7
2019-Sep-18 09:32 036 7 gusting 19 21.1
2019-Sep-18 09:15 034 7 gusting 17 20.0
2019-Sep-18 08:46 033 5 gusting 9 17.2
2019-Sep-18 08:16 049 6 gusting 13 16.1
2019-Sep-18 07:46 082 5 gusting 13 16.1
2019-Sep-18 07:16 029 3 gusting 10 16.1
2019-Sep-18 06:46 049 4 gusting 13 16.1
2019-Sep-18 06:15 012 3 gusting 11 15.6
2019-Sep-18 05:46 040 5 gusting 12 15.6
2019-Sep-18 05:15 053 3 gusting 9 15.6
2019-Sep-18 04:45 054 3 gusting 13 16.1
2019-Sep-18 04:16 042 5 gusting 12 16.1
2019-Sep-18 03:16 047 5 gusting 13 16.7
2019-Sep-18 02:15 005 1 gusting 7 17.2
2019-Sep-18 01:45 055 5 gusting 11 17.8
2019-Sep-18 01:16 360 3 gusting 12 18.3
2019-Sep-18 00:16 013 3 gusting 9 18.9
2019-Sep-17 23:15 049 2 gusting 8 19.4
2019-Sep-17 22:45 026 3 gusting 8 19.4
2019-Sep-17 22:16 064 2 gusting 11 20.0
2019-Sep-17 21:46 057 3 gusting 10 20.6
2019-Sep-17 21:01 032 8 gusting 15 21.7
2019-Sep-17 20:45 034 10 gusting 17 21.7
2019-Sep-17 20:17 034 8 gusting 17 22.8
2019-Sep-17 20:01 039 8 gusting 15 22.8